Flag for Germany Weather past 2 weeks in Nienburg (Weser), Lower Saxony, Germany

Now
50 °F

Cool.


Feels Like: 50 °F
Forecast: 55 / 75 °F
Wind: 2 mph from East

Location: Wunstorf Airport

Current Time: Sep 3, 2014 at 4:08:36 AM

Latest Report: Sep 3, 2014 at 3:20 AM


Visibility: N/A

Pressure: 30.27 "Hg

Humidity: 100%

Dew point: 50 °F

Location of Nienburg (Weser)Location

Historic Weather in Nienburg (Weser) — Graph

°F

Nienburg (Weser) temperature yesterday

Maximum temperature yesterday: 64 °F (at 1:20 PM)
Minimum temperature yesterday: 54 °F (at 11:20 PM)
Average temperature yesterday: 60 °F

Past Weeks' High & Low Weather Summary

 TemperatureHumidityPressure
High75 °F (Aug 28, 3:20 PM)100% (Aug 25, 6:51 AM)30.27 "Hg (Aug 25, 6:51 AM)
Low45 °F (Aug 25, 5:49 AM)40% (Aug 27, 6:20 PM)29.71 "Hg (Aug 26, 5:20 AM)
Average59 °F75%29.95 "Hg
* Reported Aug 19 2:20 AM — Sep 3 2:20 AM, Nienburg (Weser), Weather by CustomWeather, © 2014

Note: Actual official high and low records may vary slightly from our data, if they occured in-between our weather recording intervals... More about our weather records

Advertising

Nienburg (Weser) weather history for previous 24 hours

 ConditionsComfort  
Time TempWeatherWind HumidityBarometerVisibility
2:20 AM
Sep 3
54 °FCool.2 mph94%30.27 "HgN/A
1:20 AM54 °FCool.No wind94%30.27 "Hg1 mi
12:20 AM52 °FCool.No wind100%30.27 "Hg0 mi
11:20 PM
Sep 2
54 °FCool.No wind94%30.27 "Hg1 mi
10:20 PM55 °FCool.1 mph94%30.24 "Hg4 mi
9:20 PM57 °FCool.2 mph94%30.24 "HgN/A
8:20 PM59 °FCool.No wind88%30.21 "Hg5 mi
7:20 PM64 °FPassing clouds.No wind73%30.21 "HgN/A
6:20 PM64 °FPassing clouds.2 mph78%30.21 "HgN/A
5:20 PM63 °FBroken clouds.6 mph83%30.21 "HgN/A
4:20 PM63 °FBroken clouds.8 mph83%30.21 "HgN/A
3:20 PM64 °FPartly sunny.9 mph78%30.21 "HgN/A
2:20 PM63 °FPartly sunny.8 mph88%30.18 "HgN/A
1:20 PM64 °FPartly sunny.8 mph83%30.18 "HgN/A
12:20 PM63 °FBroken clouds.6 mph88%30.18 "HgN/A
11:20 AM63 °FBroken clouds.7 mph88%30.15 "HgN/A
10:20 AM61 °FBroken clouds.6 mph94%30.15 "Hg5 mi
9:56 AM61 °FFog.3 mph94%30.15 "Hg2 mi
9:20 AM59 °FDrizzle. Fog.3 mph100%30.15 "Hg1 mi
8:20 AM57 °FDrizzle. Fog.5 mph100%30.12 "Hg1 mi
7:20 AM57 °FDrizzle. Fog.8 mph100%30.12 "Hg1 mi
6:20 AM57 °FDrizzle. Fog.8 mph100%30.09 "Hg1 mi
5:20 AM59 °FFog.9 mph94%30.09 "Hg3 mi
4:20 AM59 °FCool.10 mph94%30.09 "Hg3 mi
Weather by CustomWeather, © 2014

See weather overviewHow to use our weather pages